BREEZE-KM R/B, 44518

Orbit data source: Space-Track

BREEZE-KM R/B, 44518 is space debris in LEO originally from a launch on Fri, 30 Aug 2019 UTC launched from the Plesetsk Missile And Space Complex (PKMTR). Debris objects in space refer to the collection of defunct objects orbiting the Earth. Examples of debris include non-operational satellites, rocket bodies, and fragments generated from explosions, collisions, or faulty payload assembly.

Loading next visibility...
BREEZE-KM R/B details
Identifier
44518, 2019-057B
Orbit
LEO
Last TLE update14 hours ago
Origin
Flag of CISVVKO VKS (CIS)
ManufacturerKhrunichev
MissionSpacecraft
Bus & MotorBRIZ, S5.92
Mass2,370 kg wet, 2,370 kg dry
Launch date (UTC)
2019-08-30 (5 years ago)
Launch vehicleUnknown
Launch site
Plesetsk Missile And Space Complex (PKMTR)
Object type
Payload
Rocket body
Debris
Shape & HBRHex Cyl + 1 Rod, 4.1 m
Radar Cross Section10.190 m², Large (>1 m²)

Expand to show TLE details & history

TLE from 14 hours ago
0 BREEZE-KM R/B
1 44518U 19057B   24336.75580807  .00000741  00000-0  27309-3 0  9998
2 44518  99.0961  88.2003 0200251 149.2601 212.0489 14.25236428273423
Epoch: 2024-12-01T18:08Z
Definitive object data (Epoch: 2024-12-01T18:08:21.817Z)
Latitude0.00005°
Longitude105.01993°
Altitude933.392 km
Speed7.322 km/s
True Right ascension05h 52m 48s
True Declination0° 00' 00"
Sunlit
Object was in full shadow at TLE epoch
Visualization TLE readout
Latitude0.45602°
Longitude-74.28925°
Altitude687.534 km
Speed7.577 km/s
Apparent Right ascension18h 02m 42s
Apparent Declination-18° 33' 47"
Sunlit
Object is in daylight
Visualization observer readout
Local Sidereal Time06:13:01
Azimuth6.688° NNE
Elevation-68.531°
Doppler factor1
Orbital elements
Apogee altitude948.707 km
Perigee altitude661.026 km
Semi-major axis7,183.004 km
Eccentricity0.0200251
Inclination99.0961°
RAAN88.2003°
Arg. of periapsis149.2601°
True anomaly210.85663°
Mean anomaly212.0489°
Eccentric anomaly211.45026°
Mean motion3.5652 °/min
BSTAR0.00027309
Orbital period100.98 mins
Loading maneuver chart data...
Loading historical data...
Loading historical data...
Loading historical data...
Loading historical data...
Loading historical data...
Loading historical data...
Loading historical data...
Other satellites on launch #57 in the year 2019 (2019-08-30 UTC)

BREEZE-KM R/B Visibility forecast

Observer location: undefined°, undefined

Span
Click to sort rows by Start time (UTC) header in descending order
Start Az.
Max El. time (UTC)
Max El. Az.
Max El.
End time (UTC)
End Az.
7 mins2024-12-02 20:00:47.019Z37.654° NE2024-12-02 20:03:47.019Z92.074° ESE30.585°2024-12-02 20:07:47.019Z164.467° S
5 mins2024-12-02 21:41:47.019Z325.509° NNW2024-12-02 21:43:47.019Z291.594° WNW18.901°2024-12-02 21:46:47.019Z249.112° W
9 mins2024-12-03 07:19:47.019Z152.899° SSE2024-12-03 07:23:47.019Z104.842° ESE42.074°2024-12-03 07:28:47.019Z352.694° N
|